Content
SEND FEEDBACK

Daily
Averages
Monthly
Summary
Mexico

CACAO, QUINTANA ROO


Home > North America > Mexico > Quintana Roo
Elevation: 115 feet     Latitude: 18 13N     Longitude: 088 39W

WEATHER
 
SELECT A DAY
Number of Records: 122,428;   Date Range: 1/1/95 - 8/31/14
 
SHARE

PRINT THIS DATA

[ ← Previous Day ]
WEATHER ALMANAC - JUNE 9, 2014
[ Next Day → ]
[ °C ]   °F
Weather ElementAverageHighLow
Temperature83.4 °F89 °F (12:50 pm)80 °F (6:50 am)
Dewpoint75.5 °F77 °F (3:50 am)73.4 °F (6:22 am)
Humidity75.7 %85 % (3:50 am)57 % (12:50 pm)
Barometer29.88 in29.92 in (1:00 am)29.82 in (4:41 pm)
Wind Speed8.2 mph20.7 mph (5:41 pm)
Weather ElementAverage
Visibility6.6 mi
Wind DirectionENE (80 °)

Weather ElementTotal
Precipitation---
Cooling Degree Days19.5 (Base 65)
Growing Degree Days34.5 (Base 50)
Averaged from 27 records on June 9, 2014
WEATHER CONDITIONS BREAKOUT
WIND DIRECTION BREAKOUT
WEATHER BY HOUR - JUNE 9, 2014
[ °C ]   °F
Local TimeTemperatureDewpointHumidityBarometerVisibilityWind DirectionWind SpeedGust SpeedPrecipitationEventsConditions
1:00 AM81.0 °F76.0 °F82 %29.92 in5.0 miEast (100°)4.5 mphMostly Cloudy
3:50 AM81.0 °F77.0 °F85 %29.88 in5.0 miEast (90°)4.5 mphRainLight Drizzle
6:22 AM80.6 °F73.4 °F79 %29.88 in7.0 miCalmMostly Cloudy
6:46 AM80.6 °F73.4 °F79 %29.89 in7.0 miCalmMostly Cloudy
6:50 AM80.0 °F76.0 °F85 %29.90 in6.0 miEast (80°)6.7 mphRainLight Drizzle
7:47 AM80.6 °F73.4 °F79 %29.90 in7.0 miCalmMostly Cloudy
8:42 AM82.4 °F75.2 °F79 %29.90 in7.0 miCalmMostly Cloudy
9:48 AM82.4 °F75.2 °F79 %29.92 in7.0 miCalmMostly Cloudy
9:50 AM85.0 °F77.0 °F72 %29.92 in6.0 miEast (80°)6.7 mphPartly Cloudy
10:40 AM84.2 °F77.0 °F79 %29.91 in7.0 miEast (90°)6.9 mphMostly Cloudy
11:44 AM86.0 °F77.0 °F74 %29.90 in7.0 miEast (90°)9.2 mphMostly Cloudy
12:42 PM84.2 °F75.2 °F74 %29.89 in7.0 miEast (100°)17.3 mphMostly Cloudy
12:50 PM89.0 °F76.0 °F57 %29.91 in6.0 miEast (90°)6.7 mphOvercast
1:44 PM84.2 °F75.2 °F74 %29.88 in7.0 miEast (100°)17.3 mphMostly Cloudy
2:42 PM84.2 °F75.2 °F74 %29.85 in7.0 miESE (120°)11.5 mphMostly Cloudy
3:41 PM84.2 °F75.2 °F74 %29.85 in7.0 miESE (120°)11.5 mphMostly Cloudy
3:50 PM88.0 °F76.0 °F60 %29.86 in6.0 miESE (120°)6.7 mphOvercast
4:41 PM86.0 °F77.0 °F74 %29.82 in7.0 miESE (120°)17.3 mphMostly Cloudy
5:41 PM84.2 °F75.2 °F74 %29.83 in7.0 miESE (120°)20.7 mphMostly Cloudy
6:45 PM84.2 °F75.2 °F74 %29.84 in7.0 miESE (120°)20.7 mphMostly Cloudy
6:50 PM84.0 °F76.0 °F71 %29.86 in6.0 miESE (120°)8.9 mphPartly Cloudy
7:41 PM84.2 °F75.2 °F74 %29.84 in7.0 miESE (120°)15.0 mphMostly Cloudy
8:40 PM82.4 °F75.2 °F79 %29.85 in7.0 miEast (100°)9.2 mphMostly Cloudy
9:40 PM82.4 °F75.2 °F79 %29.87 in7.0 miEast (100°)6.9 mphMostly Cloudy
9:50 PM83.0 °F76.0 °F75 %29.89 in5.0 miEast (90°)6.7 mphScattered Clouds
10:41 PM82.4 °F75.2 °F79 %29.89 in7.0 miEast (90°)6.9 mphMostly Cloudy
11:41 PM82.4 °F75.2 °F79 %29.90 in7.0 miCalmScattered Clouds
Hourly data recorded from MMCM, located miles away from Cacao, Quintana Roo







STORIES FROM OUR PARTNERS